�������l�o���
Date,Time,MP-1(��Sv/h),MP-2(��Sv/h),MP-3(��Sv/h),MP-4(��Sv/h),MP-5(��Sv/h),MP-6(��Sv/h),MP-7(��Sv/h),MP-8(��Sv/h),����,����(m/s),���J
2024/06/18,00:00,0.518,0.795,0.498,0.992,0.727,0.321,0.561,0.518,��쐼,6.1,��
2024/06/18,00:10,0.521,0.798,0.498,0.993,0.727,0.320,0.560,0.517,��,6.6,��
2024/06/18,00:20,0.518,0.795,0.498,0.991,0.728,0.321,0.560,0.517,��쐼,6.5,��
2024/06/18,00:30,0.518,0.793,0.498,0.991,0.726,0.320,0.560,0.517,��,6.5,��
2024/06/18,00:40,0.518,0.796,0.498,0.992,0.726,0.321,0.560,0.518,��쐼,4.9,��
2024/06/18,00:50,0.519,0.796,0.498,0.991,0.727,0.320,0.561,0.518,��,5.9,�L
2024/06/18,01:00,0.519,0.796,0.497,0.994,0.727,0.321,0.560,0.518,��,6.7,�L
2024/06/18,01:10,0.518,0.793,0.496,0.993,0.725,0.322,0.561,0.519,��,6.3,�L
2024/06/18,01:20,0.519,0.795,0.500,0.992,0.727,0.321,0.559,0.519,��,8.6,��
2024/06/18,01:30,0.519,0.795,0.499,0.992,0.727,0.321,0.560,0.518,��,7.8,�L
2024/06/18,01:40,0.518,0.794,0.499,0.992,0.726,0.322,0.560,0.519,��,7.4,�L
2024/06/18,01:50,0.518,0.795,0.500,0.992,0.727,0.321,0.559,0.520,��,6.7,�L
2024/06/18,02:00,0.519,0.795,0.498,0.994,0.727,0.321,0.558,0.517,��,5.6,�L
2024/06/18,02:10,0.519,0.796,0.499,0.991,0.726,0.320,0.559,0.518,��,5.4,�L
2024/06/18,02:20,0.519,0.795,0.499,0.994,0.727,0.321,0.560,0.518,��,6.4,�L
2024/06/18,02:30,0.518,0.795,0.499,0.993,0.728,0.321,0.561,0.520,��,6.2,�L
2024/06/18,02:40,0.519,0.796,0.499,0.995,0.727,0.323,0.560,0.519,��,6.7,�L
2024/06/18,02:50,0.521,0.797,0.498,0.992,0.729,0.320,0.561,0.518,��쐼,4.9,�L
2024/06/18,03:00,0.521,0.794,0.499,0.993,0.727,0.322,0.561,0.518,��쐼,4.8,�L
2024/06/18,03:10,0.520,0.794,0.498,0.992,0.728,0.322,0.559,0.517,��쐼,3.6,�L
2024/06/18,03:20,0.521,0.796,0.498,0.992,0.729,0.321,0.560,0.518,��쐼,5.4,�L
2024/06/18,03:30,0.521,0.797,0.501,0.995,0.727,0.324,0.560,0.518,��쐼,6.5,�L
2024/06/18,03:40,0.521,0.796,0.497,0.994,0.727,0.322,0.562,0.519,��쐼,5.9,�L
2024/06/18,03:50,0.522,0.796,0.499,0.993,0.727,0.321,0.560,0.518,��쐼,5.7,�L
2024/06/18,04:00,0.524,0.796,0.499,0.991,0.728,0.322,0.561,0.519,��쐼,5.9,�L
2024/06/18,04:10,0.519,0.795,0.500,0.992,0.725,0.323,0.560,0.518,��쐼,5.9,�L
2024/06/18,04:20,0.522,0.795,0.499,0.994,0.728,0.322,0.561,0.518,��쐼,6.5,�L
2024/06/18,04:30,0.521,0.796,0.499,0.993,0.726,0.321,0.561,0.518,��쐼,7.1,�L
2024/06/18,04:40,0.521,0.793,0.500,0.995,0.726,0.320,0.560,0.519,��쐼,7.1,�L
2024/06/18,04:50,0.520,0.795,0.498,0.994,0.728,0.322,0.561,0.518,��쐼,6.4,�L
2024/06/18,05:00,0.521,0.795,0.498,0.993,0.726,0.322,0.560,0.518,��,4.2,�L
2024/06/18,05:10,0.520,0.793,0.499,0.992,0.726,0.321,0.561,0.518,��,2.8,�L
2024/06/18,05:20,0.520,0.793,0.497,0.993,0.728,0.319,0.561,0.519,��,3.9,�L
2024/06/18,05:30,0.517,0.791,0.498,0.993,0.725,0.319,0.558,0.517,��,4.7,�L
2024/06/18,05:40,0.520,0.791,0.500,0.994,0.726,0.321,0.558,0.519,��,4.1,�L
2024/06/18,05:50,0.518,0.792,0.497,0.992,0.725,0.321,0.561,0.517,��,3.2,�L
2024/06/18,06:00,0.517,0.792,0.495,0.994,0.724,0.321,0.559,0.517,��,4.5,�L
2024/06/18,06:10,0.518,0.790,0.496,0.991,0.721,0.321,0.557,0.518,��,4.9,�L
2024/06/18,06:20,0.516,0.788,0.496,0.992,0.720,0.319,0.557,0.518,��,6.6,�L
2024/06/18,06:30,0.515,0.787,0.495,0.991,0.718,0.318,0.557,0.516,��쓌,6.4,�L
2024/06/18,06:40,0.515,0.784,0.493,0.991,0.717,0.319,0.556,0.516,��,6.1,�L
2024/06/18,06:50,0.514,0.783,0.493,0.990,0.717,0.319,0.557,0.516,��,4.8,�L
2024/06/18,07:00,0.515,0.783,0.493,0.988,0.717,0.318,0.557,0.517,��쐼,3.0,�L
2024/06/18,07:10,0.513,0.782,0.492,0.990,0.715,0.319,0.554,0.514,��쐼,4.3,�L
2024/06/18,07:20,0.513,0.783,0.492,0.989,0.716,0.319,0.556,0.514,��쐼,3.1,�L
2024/06/18,07:30,0.513,0.781,0.492,0.988,0.715,0.319,0.556,0.512,��쐼,2.6,�L
2024/06/18,07:40,0.513,0.781,0.491,0.989,0.714,0.318,0.557,0.514,��쐼,3.3,�L
2024/06/18,07:50,0.511,0.781,0.491,0.988,0.714,0.319,0.554,0.514,��,4.1,�L
2024/06/18,08:00,0.511,0.781,0.491,0.988,0.715,0.318,0.555,0.511,��,3.7,�L
2024/06/18,08:10,0.510,0.781,0.492,0.986,0.712,0.318,0.555,0.514,��쓌,4.3,�L
2024/06/18,08:20,0.512,0.778,0.491,0.984,0.712,0.316,0.556,0.512,��,4.1,�L
2024/06/18,08:30,0.501,0.777,0.491,0.984,0.711,0.317,0.556,0.512,��,4.3,�L
2024/06/18,08:40,0.500,0.776,0.489,0.982,0.707,0.318,0.555,0.512,��,4.6,�L
2024/06/18,08:50,0.498,0.774,0.490,0.984,0.707,0.315,0.555,0.512,��,4.1,�L
2024/06/18,09:00,0.499,0.770,0.488,0.982,0.705,0.316,0.553,0.510,-,CALM,�L
2024/06/18,09:10,0.496,0.769,0.487,0.977,0.702,0.316,0.555,0.512,��쓌,3.7,�L
2024/06/18,09:20,0.501,0.768,0.485,0.973,0.700,0.315,0.553,0.510,-,CALM,�L
2024/06/18,09:30,0.503,0.764,0.486,0.972,0.699,0.315,0.552,0.509,-,CALM,�L
2024/06/18,09:40,0.503,0.762,0.484,0.970,0.699,0.314,0.552,0.510,-,CALM,�L
2024/06/18,09:50,0.501,0.762,0.483,0.967,0.695,0.313,0.551,0.508,��,4.0,�L
2024/06/18,10:00,0.500,0.759,0.482,0.964,0.694,0.315,0.550,0.508,��,4.0,�L
2024/06/18,10:10,0.499,0.758,0.482,0.964,0.691,0.311,0.547,0.506,��,4.5,�L
2024/06/18,10:20,0.497,0.753,0.479,0.959,0.688,0.314,0.549,0.507,��,3.6,�L
2024/06/18,10:30,0.496,0.752,0.479,0.955,0.688,0.312,0.548,0.506,��,3.6,�L
2024/06/18,10:40,0.494,0.750,0.477,0.952,0.685,0.311,0.548,0.506,��,4.2,�L
2024/06/18,10:50,0.494,0.751,0.479,0.947,0.684,0.311,0.548,0.504,��,3.3,�L
2024/06/18,11:00,0.493,0.746,0.478,0.947,0.683,0.309,0.547,0.504,-,CALM,�L
2024/06/18,11:10,0.492,0.747,0.475,0.945,0.680,0.309,0.546,0.504,-,CALM,�L
2024/06/18,11:20,0.491,0.745,0.474,0.944,0.683,0.310,0.545,0.504,-,CALM,�L
2024/06/18,11:30,0.491,0.744,0.476,0.941,0.679,0.309,0.546,0.504,-,CALM,�L
2024/06/18,11:40,0.491,0.742,0.474,0.940,0.679,0.308,0.546,0.503,-,CALM,�L
2024/06/18,11:50,0.488,0.744,0.476,0.940,0.677,0.309,0.545,0.504,��쓌,2.3,�L
2024/06/18,12:00,0.488,0.742,0.473,0.935,0.677,0.307,0.545,0.502,-,CALM,�L
2024/06/18,12:10,0.488,0.741,0.474,0.934,0.675,0.308,0.544,0.503,��쓌,4.4,�L
2024/06/18,12:20,0.487,0.741,0.474,0.935,0.677,0.308,0.545,0.502,��,3.7,�L
2024/06/18,12:30,0.487,0.742,0.473,0.933,0.676,0.308,0.544,0.502,��,2.5,�L
2024/06/18,12:40,0.487,0.739,0.473,0.933,0.675,0.308,0.542,0.502,��쓌,2.2,�L
2024/06/18,12:50,0.485,0.738,0.471,0.929,0.674,0.307,0.545,0.501,��,0.6,�L
2024/06/18,13:00,0.485,0.738,0.471,0.927,0.672,0.306,0.544,0.501,��쓌,0.9,�L
2024/06/18,13:10,0.485,0.735,0.471,0.927,0.671,0.307,0.553,0.499,��,2.6,�L
2024/06/18,13:20,0.483,0.736,0.472,0.927,0.668,0.308,0.543,0.500,��,3.8,�L
2024/06/18,13:30,0.484,0.736,0.471,0.926,0.671,0.307,0.543,0.500,��,3.7,�L
2024/06/18,13:40,0.484,0.731,0.469,0.923,0.670,0.305,0.543,0.500,��쐼,3.8,�L
2024/06/18,13:50,0.482,0.734,0.470,0.922,0.669,0.305,0.541,0.500,��쐼,2.5,�L
2024/06/18,14:00,0.483,0.734,0.469,0.921,0.667,0.306,0.542,0.500,-,CALM,�L
2024/06/18,14:10,0.482,0.733,0.469,0.920,0.667,0.305,0.541,0.500,���쓌,1.1,�L
2024/06/18,14:20,0.484,0.734,0.471,0.922,0.670,0.307,0.542,0.500,��쓌,2.6,�L
2024/06/18,14:30,0.484,0.736,0.470,0.921,0.670,0.307,0.544,0.498,��쓌,2.8,�L
2024/06/18,14:40,0.486,0.735,0.473,0.921,0.668,0.307,0.542,0.501,��쐼,2.8,�L
2024/06/18,14:50,0.485,0.736,0.471,0.923,0.669,0.307,0.542,0.500,�쐼,2.6,�L
2024/06/18,15:00,0.483,0.736,0.471,0.923,0.669,0.307,0.542,0.499,�쐼,2.2,�L
2024/06/18,15:10,0.486,0.737,0.473,0.925,0.669,0.308,0.543,0.501,���k��,2.9,�L
2024/06/18,15:20,0.486,0.736,0.471,0.924,0.672,0.307,0.543,0.500,���k��,0.9,��
2024/06/18,15:30,0.486,0.739,0.472,0.925,0.671,0.307,0.544,0.502,-,CALM,�L
2024/06/18,15:40,0.486,0.740,0.472,0.927,0.672,0.307,0.544,0.499,�k�k��,0.8,��
2024/06/18,15:50,0.487,0.739,0.473,0.926,0.670,0.306,0.543,0.501,�k�k��,0.9,��
2024/06/18,16:00,0.488,0.741,0.474,0.924,0.672,0.308,0.542,0.500,�k�k��,1.5,��
2024/06/18,16:10,0.486,0.739,0.473,0.925,0.670,0.307,0.545,0.502,�k�k��,2.3,��
2024/06/18,16:20,0.485,0.739,0.472,0.927,0.672,0.307,0.544,0.503,�k�k��,1.5,��
2024/06/18,16:30,0.486,0.740,0.471,0.927,0.673,0.306,0.543,0.502,�k�k��,1.2,��
2024/06/18,16:40,0.487,0.741,0.472,0.927,0.671,0.306,0.543,0.503,�k,1.1,��
2024/06/18,16:50,0.486,0.741,0.473,0.926,0.671,0.306,0.542,0.502,���k��,0.8,��
2024/06/18,17:00,0.485,0.741,0.471,0.926,0.671,0.307,0.544,0.501,�쓌,0.8,��
2024/06/18,17:10,0.485,0.742,0.472,0.927,0.672,0.305,0.544,0.501,�쓌,0.8,��
2024/06/18,17:20,0.485,0.743,0.471,0.928,0.672,0.306,0.544,0.502,���k��,0.9,��
2024/06/18,17:30,0.487,0.744,0.471,0.928,0.670,0.308,0.543,0.502,���쓌,0.6,��
2024/06/18,17:40,0.486,0.740,0.469,0.926,0.672,0.306,0.544,0.502,�k�k��,0.8,��
2024/06/18,17:50,0.485,0.741,0.472,0.929,0.672,0.307,0.544,0.502,-,CALM,��
2024/06/18,18:00,0.487,0.742,0.471,0.925,0.674,0.308,0.544,0.503,�k�k��,0.8,��
2024/06/18,18:10,0.486,0.743,0.472,0.929,0.674,0.307,0.544,0.503,�k�k��,0.6,��
2024/06/18,18:20,0.486,0.743,0.472,0.928,0.674,0.306,0.543,0.500,���쓌,0.6,��
2024/06/18,18:30,0.486,0.746,0.473,0.927,0.675,0.308,0.543,0.500,��,0.8,��
2024/06/18,18:40,0.485,0.747,0.474,0.927,0.674,0.309,0.543,0.504,��쐼,0.6,��
2024/06/18,18:50,0.487,0.745,0.475,0.928,0.676,0.308,0.545,0.503,-,CALM,��
2024/06/18,19:00,0.487,0.745,0.473,0.927,0.676,0.308,0.544,0.503,��,0.9,��
2024/06/18,19:10,0.488,0.745,0.475,0.927,0.676,0.307,0.546,0.503,-,CALM,��
2024/06/18,19:20,0.487,0.745,0.474,0.929,0.675,0.308,0.545,0.504,��,0.9,��
2024/06/18,19:30,0.489,0.745,0.473,0.928,0.676,0.309,0.545,0.505,��,0.9,��
2024/06/18,19:40,0.488,0.745,0.475,0.929,0.677,0.308,0.546,0.504,�k��,0.9,��
2024/06/18,19:50,0.488,0.747,0.474,0.925,0.676,0.309,0.546,0.505,-,CALM,��
2024/06/18,20:00,0.487,0.746,0.473,0.930,0.676,0.308,0.546,0.504,��쓌,1.1,��
2024/06/18,20:10,0.489,0.745,0.474,0.927,0.677,0.309,0.547,0.504,-,CALM,��
2024/06/18,20:20,0.489,0.745,0.474,0.927,0.676,0.308,0.546,0.503,��,0.9,��
2024/06/18,20:30,0.490,0.745,0.474,0.927,0.675,0.309,0.545,0.505,��,1.2,��
2024/06/18,20:40,0.489,0.748,0.475,0.930,0.677,0.309,0.547,0.505,��,1.2,��
2024/06/18,20:50,0.488,0.746,0.474,0.931,0.677,0.310,0.546,0.506,�k��,1.7,��
2024/06/18,21:00,0.488,0.745,0.473,0.929,0.677,0.310,0.545,0.504,�k��,2.0,��
2024/06/18,21:10,0.490,0.744,0.475,0.929,0.676,0.310,0.547,0.504,�k��,2.2,��
2024/06/18,21:20,0.491,0.748,0.475,0.930,0.676,0.310,0.546,0.505,�k��,2.5,��
2024/06/18,21:30,0.491,0.746,0.475,0.929,0.678,0.310,0.546,0.506,�k��,2.6,��
2024/06/18,21:40,0.490,0.747,0.474,0.927,0.675,0.311,0.547,0.504,�k��,3.4,��
2024/06/18,21:50,0.489,0.748,0.474,0.929,0.676,0.310,0.546,0.504,���k��,3.4,��
2024/06/18,22:00,0.489,0.746,0.475,0.930,0.678,0.309,0.546,0.505,���k��,3.1,��
2024/06/18,22:10,0.489,0.745,0.475,0.929,0.677,0.311,0.546,0.505,���k��,2.3,��
2024/06/18,22:20,0.489,0.746,0.474,0.930,0.678,0.310,0.546,0.505,���k��,2.6,��
2024/06/18,22:30,0.489,0.746,0.474,0.929,0.679,0.310,0.546,0.507,���k��,2.8,��
2024/06/18,22:40,0.490,0.747,0.476,0.930,0.677,0.310,0.545,0.505,���k��,3.4,��
2024/06/18,22:50,0.490,0.747,0.474,0.929,0.678,0.311,0.545,0.504,���k��,3.9,��
2024/06/18,23:00,0.489,0.746,0.474,0.931,0.677,0.309,0.546,0.505,�k��,3.8,��
2024/06/18,23:10,0.489,0.744,0.475,0.928,0.677,0.312,0.546,0.505,�k��,4.9,��
2024/06/18,23:20,0.491,0.747,0.475,0.928,0.676,0.311,0.546,0.505,�k��,4.8,��
2024/06/18,23:30,0.490,0.746,0.474,0.930,0.679,0.311,0.546,0.505,�k��,4.3,��
2024/06/18,23:40,0.489,0.747,0.475,0.930,0.676,0.310,0.546,0.505,�k��,4.0,��
2024/06/18,23:50,0.489,0.749,0.474,0.930,0.679,0.313,0.545,0.504,�k��,4.9,��
